Regional Weather Roundup
Issued by NWS Columbia, SC

Home | Current Version | Previous Version | Text Only | Print | Product List | Glossary On
Versions: 1 2 3 4 5 6 7 8 9 10 11 12 13 14 15 16 17 18 19 20 21 22 23 24 25 26 27
000
ASUS42 KCAE 261010
RWRCAE
REGIONAL WEATHER ROUNDUP
NATIONAL WEATHER SERVICE COLUMBIA SC
600 AM EDT THU MAY 26 2016

NOTE: "FAIR" INDICATES FEW OR NO CLOUDS BELOW 12,000 FEET WITH NO
SIGNIFICANT WEATHER AND/OR OBSTRUCTIONS TO VISIBILITY.

NOT ALL STATIONS ARE QUALITY CONTROLLED BY THE NATIONAL
WEATHER SERVICE. USE DATA WITH CAUTION...ESPECIALLY
DEWPOINT OBSERVATIONS.

SCZ001>056-GAZ040-063>065-077-261100-
...UPSTATE SOUTH CAROLINA...

CITY           SKY/WX    TMP DP  RH WIND       PRES   REMARKS
ANDERSON       PTCLDY    65  59  81 CALM      30.17R
LIBERTY        CLOUDY    58  57  96 CALM      30.17R
SPARTANBURG    CLEAR     61  57  88 CALM      30.17S
CLEMSON        PTCLDY    67  62  84 CALM      30.18R
GREENVILLE     CLOUDY    68  57  68 CALM      30.18R
GREENWOOD      PTCLDY    66  57  72 SW6       30.19R
GREER          CLOUDY    64  59  83 CALM      30.16R
ROCK HILL      CLEAR     61  58  90 SW6       30.18R
CHESTER        SUNNY     63  59  88 CALM      30.19R
LAURENS        SUNNY     63  59  88 S5        30.17S


...CENTRAL SOUTH CAROLINA...

CITY           SKY/WX    TMP DP  RH WIND       PRES   REMARKS
COLUMBIA APT   CLEAR     65  59  81 CALM      30.17R
COLUMBIA OWENS CLEAR     66  60  81 CALM      30.19R
MCENTIRE ANGB  CLEAR     60  59  97 CALM      30.19R
ORANGEBURG     CLEAR     64  62  93 CALM      30.19R
SUMTER SHAW    CLEAR     68  64  88 S5        30.16S
NEWBERRY       SUNNY     63  59  88 CALM      30.20S
AIKEN          FAIR      64  59  82 S6        30.22R
BARNWELL       FAIR      66  66 100 CALM      30.19S
MANNING        FAIR      68  64  88 CALM      30.18S
LANCASTER      SUNNY     63  63 100 CALM      30.18S
WINNSBORO      SUNNY     64  59  82 S5        30.18S


...EASTERN AND COASTAL SOUTH CAROLINA...

CITY           SKY/WX    TMP DP  RH WIND       PRES   REMARKS
MYRTLE BEACH   CLEAR     72  63  73 SW7       30.22R
N MYRTLE BCH   CLEAR     71  68  90 CALM      30.20R
CONWAY         FOG       59  59 100 CALM      30.20R VSB 3/4
MARION         FAIR      63  63 100 S3        30.19R
HARTSVILLE     FAIR      63  61  94 CALM      30.18R
DARLINGTON     CLEAR     66  64  93 SW5       30.18S
CHARLESTON APT MOCLDY    70  66  87 SW3       30.19R
MOUNT PLEASANT FAIR      64  64 100 CALM      30.20R
WALTERBORO     MOSUNNY   64  64 100 E5        30.19S FOG
BEAUFORT       CLEAR     69  67  93 CALM      30.18S


...EASTERN GEORGIA...

CITY           SKY/WX    TMP DP  RH WIND       PRES   REMARKS
AUGUSTA BUSH F CLEAR     59  58  96 CALM      30.18R
AUGUSTA DANIEL CLEAR     69  60  73 S8        30.18S
THOMSON        CLEAR     68  63  82 CALM      30.22R
WASHINGTON     FAIR      66  61  82 CALM      30.17S
CLAXTON        FAIR      62  62  99 CALM      30.18S
SYLVANIA       SUNNY     68  65  92 CALM      30.19S
STATESBORO     MOCLDY    67  66  98 CALM      30.18S
SAVANNAH       PTCLDY    69  65  86 CALM      30.18R


...SOUTHERN NORTH CAROLINA...

CITY           SKY/WX    TMP DP  RH WIND       PRES   REMARKS
CHARLOTTE      PTCLDY    65  57  75 S3        30.18R
WADESBORO      MOSUNNY   63  56  79 CALM      30.17R
ROCKINGHAM     SUNNY     64  62  91 S5        30.18R
RUTHERFORDTON  CLOUDY    62  62 100 CALM      30.18R
ASHEVILLE      CLOUDY    60  55  83 CALM      30.23R

$$




USA.gov is the U.S. government's official web portal to all federal, state and local government web resources and services.